UTA7775 USRO-USTR

Flight info

Callsign UTA7775
Flight time 1h 45m
Altitude 36000
Route DINOL2G DINOL T797 NERUG NERUG1M
Aircraft B738/M-SDE2E3FGHIRWXY/LB1

Departure

Time 2026-04-22 08:36
Airport Noyabrsk Airport (USRO)

Arrival

Time 2026-04-22 10:21
Airport Roshchino International Airport (USTR)
Time Latitude Longitude Altitude Speed Heading
2026-04-22 08:22 63.18313 75.27308 454 ft 0 kts 204°
2026-04-22 08:29 63.18306 75.27301 454 ft 2 kts 204°
2026-04-22 08:29 63.18301 75.27296 454 ft 0 kts 204°
2026-04-22 08:31 63.18294 75.27281 452 ft 13 kts 228°
2026-04-22 08:32 63.18309 75.27064 456 ft 16 kts 295°
2026-04-22 08:32 63.18366 75.26894 456 ft 18 kts 330°
2026-04-22 08:32 63.18467 75.26969 454 ft 20 kts 28°
2026-04-22 08:32 63.18617 75.27126 450 ft 26 kts 25°
2026-04-22 08:33 63.18733 75.27247 448 ft 8 kts 25°
2026-04-22 08:33 63.18816 75.27336 438 ft 17 kts 26°
2026-04-22 08:33 63.18940 75.27471 434 ft 23 kts 26°
2026-04-22 08:33 63.19109 75.27659 433 ft 31 kts 27°
2026-04-22 08:34 63.19258 75.27826 426 ft 24 kts 25°
2026-04-22 08:34 63.19333 75.27923 430 ft 8 kts 49°
2026-04-22 08:34 63.19353 75.27955 428 ft 1 kts 349°
2026-04-22 08:34 63.19359 75.27926 435 ft 3 kts 272°
2026-04-22 08:35 63.19339 75.27876 431 ft 7 kts 210°
2026-04-22 08:35 63.19275 75.27808 424 ft 47 kts 205°
2026-04-22 08:35 63.18616 75.27145 452 ft 156 kts 201°
2026-04-22 08:35 63.17419 75.25800 762 ft 214 kts 210°
2026-04-22 08:36 63.16165 75.23877 1319 ft 232 kts 214°
2026-04-22 08:36 63.14845 75.21665 1825 ft 236 kts 215°
2026-04-22 08:36 63.13560 75.19307 1852 ft 244 kts 220°
2026-04-22 08:36 63.12321 75.16696 2509 ft 245 kts 220°
2026-04-22 08:37 63.11119 75.14207 3929 ft 229 kts 218°
2026-04-22 08:37 63.09903 75.11909 4980 ft 229 kts 214°
2026-04-22 08:37 63.08611 75.09825 5939 ft 231 kts 210°
2026-04-22 08:37 63.07268 75.07899 6950 ft 230 kts 209°
2026-04-22 08:38 63.05934 75.06038 7860 ft 230 kts 210°
2026-04-22 08:38 63.04604 75.04032 8718 ft 232 kts 213°
2026-04-22 08:38 63.03314 75.01857 9549 ft 234 kts 216°
2026-04-22 08:38 63.02053 74.99569 10325 ft 241 kts 218°
2026-04-22 08:39 63.00627 74.97222 10603 ft 273 kts 214°
2026-04-22 08:39 62.98985 74.94680 10873 ft 303 kts 215°
2026-04-22 08:39 62.97223 74.91917 11506 ft 317 kts 216°
2026-04-22 08:39 62.95432 74.89054 12422 ft 320 kts 217°
2026-04-22 08:40 62.93631 74.86127 13396 ft 322 kts 218°
2026-04-22 08:40 62.91825 74.83165 14244 ft 328 kts 219°
2026-04-22 08:40 62.89983 74.80129 15061 ft 333 kts 219°
2026-04-22 08:40 62.88126 74.77065 15942 ft 336 kts 220°
2026-04-22 08:41 62.86251 74.73971 16792 ft 339 kts 220°
2026-04-22 08:41 62.84357 74.70852 17603 ft 342 kts 221°
2026-04-22 08:41 62.82441 74.67706 18389 ft 346 kts 221°
2026-04-22 08:41 62.80497 74.64543 19158 ft 350 kts 221°
2026-04-22 08:42 62.78531 74.61371 19919 ft 353 kts 221°
2026-04-22 08:42 62.76544 74.58177 20665 ft 356 kts 221°
2026-04-22 08:42 62.74542 74.54963 21375 ft 359 kts 222°
2026-04-22 08:42 62.72520 74.51718 22065 ft 362 kts 222°
2026-04-22 08:43 62.70498 74.48482 22878 ft 359 kts 222°
2026-04-22 08:43 62.68500 74.45293 23797 ft 354 kts 222°
2026-04-22 08:43 62.66517 74.42127 24605 ft 352 kts 223°
2026-04-22 08:43 62.64545 74.38980 25333 ft 351 kts 223°
2026-04-22 08:44 62.62579 74.35848 26069 ft 350 kts 223°
2026-04-22 08:44 62.60621 74.32733 26779 ft 348 kts 223°
2026-04-22 08:44 62.58668 74.29629 27446 ft 347 kts 223°
2026-04-22 08:44 62.56724 74.26546 28117 ft 346 kts 223°
2026-04-22 08:45 62.54784 74.23478 28741 ft 345 kts 223°
2026-04-22 08:45 62.52850 74.20422 29371 ft 343 kts 223°
2026-04-22 08:45 62.50919 74.17365 29811 ft 345 kts 223°
2026-04-22 08:46 62.47064 74.11278 29832 ft 343 kts 223°
2026-04-22 08:46 62.43193 74.05178 29838 ft 346 kts 223°
2026-04-22 08:47 62.39296 73.99056 29831 ft 347 kts 223°
2026-04-22 08:47 62.35418 73.92989 29825 ft 347 kts 223°
2026-04-22 08:48 62.31516 73.86903 29821 ft 345 kts 223°
2026-04-22 08:48 62.27634 73.80870 29819 ft 344 kts 223°
2026-04-22 08:49 62.23762 73.74864 29817 ft 343 kts 223°
2026-04-22 08:49 62.19904 73.68900 29817 ft 342 kts 223°
2026-04-22 08:50 62.16048 73.62965 29817 ft 341 kts 223°
2026-04-22 08:50 62.12227 73.56979 29815 ft 340 kts 224°
2026-04-22 08:51 62.08435 73.50929 29808 ft 341 kts 224°
2026-04-22 08:51 62.04627 73.44883 29786 ft 342 kts 224°
2026-04-22 08:52 62.00803 73.38843 29776 ft 342 kts 223°
2026-04-22 08:52 61.96972 73.32819 29769 ft 342 kts 223°
2026-04-22 08:53 61.93149 73.26837 29767 ft 341 kts 223°
2026-04-22 08:53 61.89331 73.20879 29766 ft 340 kts 223°
2026-04-22 08:54 61.85525 73.14952 29767 ft 339 kts 223°
2026-04-22 08:54 61.81731 73.09060 29766 ft 338 kts 223°
2026-04-22 08:55 61.77937 73.03185 29769 ft 338 kts 223°
2026-04-22 08:55 61.74148 72.97341 29771 ft 337 kts 223°
2026-04-22 08:56 61.70362 72.91513 29769 ft 337 kts 223°
2026-04-22 08:56 61.66569 72.85701 29769 ft 337 kts 223°
2026-04-22 08:57 61.62781 72.79914 29766 ft 337 kts 222°
2026-04-22 08:57 61.59010 72.74169 29769 ft 337 kts 222°
2026-04-22 08:58 61.55205 72.68405 29767 ft 338 kts 222°
2026-04-22 08:58 61.51391 72.62650 29767 ft 338 kts 222°
2026-04-22 08:59 61.47576 72.56902 29772 ft 342 kts 222°
2026-04-22 08:59 61.45609 72.53923 29782 ft 356 kts 222°
2026-04-22 08:59 61.43570 72.50828 29788 ft 369 kts 222°
2026-04-22 08:59 61.41459 72.47637 29786 ft 381 kts 221°
2026-04-22 09:00 61.39275 72.44352 29785 ft 392 kts 221°
2026-04-22 09:00 61.37030 72.40988 29783 ft 403 kts 221°
2026-04-22 09:00 61.34729 72.37552 29778 ft 412 kts 221°
2026-04-22 09:01 61.29969 72.30465 29769 ft 429 kts 220°
2026-04-22 09:01 61.25033 72.23157 29762 ft 441 kts 220°
2026-04-22 09:02 61.20054 72.15814 29761 ft 438 kts 220°
2026-04-22 09:02 61.15094 72.08511 29761 ft 436 kts 220°
2026-04-22 09:03 61.10181 72.01298 29763 ft 436 kts 220°
2026-04-22 09:03 61.05245 71.94037 29760 ft 435 kts 220°
2026-04-22 09:04 61.00316 71.86811 29753 ft 434 kts 220°
2026-04-22 09:04 60.95636 71.79027 29729 ft 432 kts 224°
2026-04-22 09:05 60.91038 71.71073 29728 ft 432 kts 224°
2026-04-22 09:05 60.86420 71.63198 29726 ft 431 kts 224°
2026-04-22 09:06 60.81791 71.55370 29720 ft 431 kts 224°
2026-04-22 09:06 60.77173 71.47542 29713 ft 431 kts 224°
2026-04-22 09:07 60.72559 71.39726 29714 ft 431 kts 224°
2026-04-22 09:07 60.67942 71.31934 29709 ft 431 kts 223°
2026-04-22 09:08 60.64097 71.25474 29706 ft 430 kts 223°
2026-04-22 09:08 60.58722 71.16485 29703 ft 430 kts 223°
2026-04-22 09:09 60.54094 71.08770 29696 ft 430 kts 223°
2026-04-22 09:09 60.50220 71.02339 29692 ft 429 kts 223°
2026-04-22 09:10 60.45603 70.94699 29683 ft 428 kts 223°
2026-04-22 09:10 60.41022 70.87142 29683 ft 427 kts 223°
2026-04-22 09:11 60.36417 70.79578 29685 ft 426 kts 223°
2026-04-22 09:11 60.31814 70.72051 29687 ft 425 kts 222°
2026-04-22 09:12 60.27221 70.64563 29678 ft 424 kts 222°
2026-04-22 09:12 60.22640 70.57119 29679 ft 423 kts 222°
2026-04-22 09:13 60.18061 70.49707 29676 ft 422 kts 222°
2026-04-22 09:13 60.13498 70.42353 29664 ft 415 kts 221°
2026-04-22 09:13 60.11284 70.38799 29650 ft 401 kts 221°
2026-04-22 09:14 60.09155 70.35388 29648 ft 383 kts 220°
2026-04-22 09:14 60.05093 70.28882 29656 ft 370 kts 219°
2026-04-22 09:15 60.01074 70.22460 29659 ft 369 kts 219°
2026-04-22 09:15 59.97052 70.16061 29660 ft 369 kts 219°
2026-04-22 09:16 59.93027 70.09677 29655 ft 370 kts 219°
2026-04-22 09:16 59.88997 70.03306 29657 ft 370 kts 219°
2026-04-22 09:17 59.84955 69.96936 29659 ft 371 kts 219°
2026-04-22 09:17 59.80900 69.90567 29653 ft 372 kts 219°
2026-04-22 09:18 59.76870 69.84258 29660 ft 372 kts 219°
2026-04-22 09:18 59.72804 69.77910 29653 ft 372 kts 219°
2026-04-22 09:19 59.68737 69.71581 29657 ft 372 kts 219°
2026-04-22 09:19 59.64660 69.65257 29658 ft 372 kts 219°
2026-04-22 09:20 59.60579 69.58945 29657 ft 373 kts 219°
2026-04-22 09:20 59.56490 69.52644 29655 ft 373 kts 219°
2026-04-22 09:21 59.52389 69.46368 29653 ft 373 kts 219°
2026-04-22 09:21 59.48291 69.40112 29658 ft 373 kts 219°
2026-04-22 09:22 59.44195 69.33837 29667 ft 373 kts 219°
2026-04-22 09:22 59.40100 69.27581 29665 ft 373 kts 219°
2026-04-22 09:23 59.35997 69.21344 29667 ft 373 kts 219°
2026-04-22 09:23 59.31886 69.15118 29667 ft 373 kts 219°
2026-04-22 09:24 59.27778 69.08917 29664 ft 373 kts 219°
2026-04-22 09:24 59.23691 69.02769 29660 ft 373 kts 219°
2026-04-22 09:25 59.19571 68.96587 29658 ft 373 kts 219°
2026-04-22 09:25 59.15455 68.90415 29655 ft 373 kts 220°
2026-04-22 09:26 59.11956 68.83027 29657 ft 373 kts 233°
2026-04-22 09:26 59.09034 68.74709 29654 ft 372 kts 232°
2026-04-22 09:27 59.05530 68.67352 29654 ft 372 kts 220°
2026-04-22 09:27 59.01349 68.61396 29665 ft 373 kts 219°
2026-04-22 09:28 58.97315 68.55109 29663 ft 372 kts 222°
2026-04-22 09:28 58.93552 68.48259 29662 ft 371 kts 226°
2026-04-22 09:29 58.90029 68.40992 29664 ft 371 kts 225°
2026-04-22 09:29 58.86181 68.34380 29662 ft 369 kts 221°
2026-04-22 09:30 58.82267 68.27985 29681 ft 369 kts 223°
2026-04-22 09:30 58.78624 68.21056 29672 ft 367 kts 228°
2026-04-22 09:31 58.75189 68.13787 29672 ft 366 kts 228°
2026-04-22 09:31 58.71599 68.06841 29673 ft 366 kts 224°
2026-04-22 09:32 58.67786 68.00371 29667 ft 359 kts 223°
2026-04-22 09:32 58.65960 67.97310 29667 ft 339 kts 224°
2026-04-22 09:32 58.64267 67.94328 29665 ft 321 kts 225°
2026-04-22 09:32 58.62713 67.91397 29663 ft 305 kts 227°
2026-04-22 09:33 58.61274 67.88519 29671 ft 295 kts 228°
2026-04-22 09:33 58.59869 67.85653 29685 ft 296 kts 228°
2026-04-22 09:33 58.58432 67.82791 29701 ft 301 kts 227°
2026-04-22 09:34 58.55402 67.77250 29685 ft 300 kts 224°
2026-04-22 09:34 58.53842 67.74600 29683 ft 300 kts 224°
2026-04-22 09:34 58.52279 67.71959 29688 ft 300 kts 224°
2026-04-22 09:35 58.49229 67.66520 29682 ft 300 kts 226°
2026-04-22 09:35 58.47756 67.63711 29691 ft 299 kts 227°
2026-04-22 09:35 58.46295 67.60872 29701 ft 300 kts 227°
2026-04-22 09:35 58.44824 67.58049 29692 ft 300 kts 226°
2026-04-22 09:36 58.41793 67.52546 29694 ft 301 kts 225°
2026-04-22 09:36 58.38714 67.47143 29691 ft 301 kts 226°
2026-04-22 09:37 58.35714 67.41582 29693 ft 301 kts 226°
2026-04-22 09:37 58.32707 67.36101 29694 ft 302 kts 225°
2026-04-22 09:38 58.31203 67.33395 29680 ft 292 kts 225°
2026-04-22 09:38 58.29742 67.30772 29486 ft 287 kts 225°
2026-04-22 09:38 58.28315 67.28212 29275 ft 279 kts 226°
2026-04-22 09:38 58.26908 67.25687 28961 ft 276 kts 225°
2026-04-22 09:39 58.25521 67.23196 28616 ft 273 kts 225°
2026-04-22 09:39 58.24146 67.20734 28247 ft 271 kts 225°
2026-04-22 09:39 58.22783 67.18301 27890 ft 268 kts 225°
2026-04-22 09:39 58.21427 67.15882 27545 ft 266 kts 225°
2026-04-22 09:40 58.20077 67.13484 27197 ft 265 kts 225°
2026-04-22 09:40 58.18735 67.11092 26837 ft 266 kts 225°
2026-04-22 09:40 58.17364 67.08643 26492 ft 278 kts 225°
2026-04-22 09:40 58.15915 67.06049 26131 ft 293 kts 225°
2026-04-22 09:41 58.14421 67.03390 25743 ft 293 kts 225°
2026-04-22 09:41 58.12942 67.00777 25346 ft 289 kts 225°
2026-04-22 09:41 58.11482 66.98199 24964 ft 285 kts 225°
2026-04-22 09:41 58.10046 66.95652 24581 ft 281 kts 225°
2026-04-22 09:42 58.08635 66.93147 24220 ft 277 kts 225°
2026-04-22 09:42 58.07237 66.90678 23874 ft 274 kts 224°
2026-04-22 09:42 58.05847 66.88239 23508 ft 272 kts 224°
2026-04-22 09:42 58.04464 66.85809 23082 ft 274 kts 225°
2026-04-22 09:43 58.03031 66.83283 22648 ft 291 kts 225°
2026-04-22 09:43 58.01519 66.80617 22245 ft 304 kts 225°
2026-04-22 09:43 57.99976 66.77899 21833 ft 301 kts 225°
2026-04-22 09:43 57.98458 66.75234 21431 ft 295 kts 225°
2026-04-22 09:44 57.96971 66.72631 21051 ft 289 kts 225°
2026-04-22 09:44 57.95514 66.70078 20683 ft 284 kts 225°
2026-04-22 09:44 57.94079 66.67560 20325 ft 281 kts 225°
2026-04-22 09:44 57.92660 66.65059 19965 ft 279 kts 225°
2026-04-22 09:45 57.91223 66.62522 19614 ft 290 kts 225°
2026-04-22 09:45 57.89691 66.59824 19232 ft 311 kts 225°
2026-04-22 09:45 57.88093 66.57031 18834 ft 312 kts 225°
2026-04-22 09:45 57.86520 66.54294 18405 ft 304 kts 225°
2026-04-22 09:46 57.84992 66.51616 17983 ft 297 kts 225°
2026-04-22 09:46 57.83499 66.49001 17612 ft 289 kts 225°
2026-04-22 09:46 57.82044 66.46458 17252 ft 283 kts 225°
2026-04-22 09:46 57.80636 66.44006 16888 ft 277 kts 225°
2026-04-22 09:47 57.79219 66.41546 16517 ft 271 kts 225°
2026-04-22 09:47 57.77872 66.39202 16175 ft 265 kts 226°
2026-04-22 09:47 57.76520 66.36852 15846 ft 265 kts 225°
2026-04-22 09:47 57.75173 66.34549 15506 ft 259 kts 225°
2026-04-22 09:48 57.73822 66.32333 15165 ft 257 kts 223°
2026-04-22 09:48 57.72488 66.30175 14834 ft 251 kts 226°
2026-04-22 09:48 57.71269 66.27866 14579 ft 246 kts 229°
2026-04-22 09:48 57.70095 66.25562 14326 ft 245 kts 228°
2026-04-22 09:49 57.68863 66.23353 14074 ft 247 kts 225°
2026-04-22 09:49 57.67589 66.21244 13846 ft 242 kts 225°
2026-04-22 09:49 57.66334 66.19175 13414 ft 242 kts 225°
2026-04-22 09:49 57.65090 66.16994 12922 ft 247 kts 227°
2026-04-22 09:50 57.63855 66.14774 12559 ft 245 kts 227°
2026-04-22 09:50 57.62635 66.12573 12229 ft 243 kts 227°
2026-04-22 09:50 57.61423 66.10388 11914 ft 241 kts 227°
2026-04-22 09:50 57.60225 66.08228 11604 ft 239 kts 227°
2026-04-22 09:51 57.59027 66.06106 11174 ft 235 kts 227°
2026-04-22 09:51 57.57858 66.03973 10635 ft 235 kts 225°
2026-04-22 09:51 57.56666 66.01882 10122 ft 236 kts 227°
2026-04-22 09:51 57.55511 65.99726 9590 ft 235 kts 226°
2026-04-22 09:52 57.54335 65.97612 9067 ft 236 kts 226°
2026-04-22 09:52 57.53149 65.95492 8537 ft 237 kts 226°
2026-04-22 09:52 57.51953 65.93357 8024 ft 239 kts 226°
2026-04-22 09:52 57.50755 65.91221 7503 ft 239 kts 226°
2026-04-22 09:53 57.49658 65.88899 6976 ft 239 kts 233°
2026-04-22 09:53 57.48652 65.86459 6443 ft 238 kts 234°
2026-04-22 09:53 57.47656 65.84012 5924 ft 237 kts 233°
2026-04-22 09:53 57.46674 65.81621 5427 ft 229 kts 234°
2026-04-22 09:54 57.45722 65.79309 4881 ft 223 kts 234°
2026-04-22 09:54 57.44797 65.77055 4355 ft 217 kts 234°
2026-04-22 09:54 57.43880 65.74847 3834 ft 213 kts 234°
2026-04-22 09:54 57.42998 65.72650 3331 ft 212 kts 234°
2026-04-22 09:55 57.42017 65.70592 2813 ft 215 kts 231°
2026-04-22 09:55 57.41005 65.68522 2302 ft 217 kts 230°
2026-04-22 09:55 57.40017 65.66399 2080 ft 220 kts 231°
2026-04-22 09:55 57.39094 65.64138 2029 ft 219 kts 237°
2026-04-22 09:56 57.38542 65.62609 1981 ft 210 kts 237°
2026-04-22 09:56 57.37737 65.60456 1718 ft 198 kts 235°
2026-04-22 09:56 57.36931 65.58461 1523 ft 184 kts 234°
2026-04-22 09:56 57.36192 65.56665 1500 ft 169 kts 234°
2026-04-22 09:57 57.35489 65.54988 1497 ft 163 kts 233°
2026-04-22 09:57 57.34786 65.53318 1507 ft 166 kts 233°
2026-04-22 09:57 57.34070 65.51620 1515 ft 169 kts 233°
2026-04-22 09:57 57.33344 65.49911 1508 ft 168 kts 233°
2026-04-22 09:58 57.32604 65.48245 1499 ft 168 kts 223°
2026-04-22 09:58 57.31597 65.47108 1450 ft 171 kts 212°
2026-04-22 09:58 57.30566 65.46012 1399 ft 171 kts 212°
2026-04-22 09:58 57.29568 65.44949 1290 ft 159 kts 213°
2026-04-22 09:59 57.28644 65.43972 1187 ft 148 kts 213°
2026-04-22 09:59 57.27744 65.43018 1069 ft 149 kts 213°
2026-04-22 09:59 57.26850 65.42069 964 ft 146 kts 213°
2026-04-22 09:59 57.26001 65.41163 951 ft 141 kts 213°
2026-04-22 10:00 57.25156 65.40266 903 ft 139 kts 213°
2026-04-22 10:00 57.24332 65.39390 909 ft 135 kts 214°
2026-04-22 10:00 57.23517 65.38515 912 ft 136 kts 214°
2026-04-22 10:00 57.22708 65.37631 900 ft 134 kts 220°
2026-04-22 10:01 57.22203 65.36314 1070 ft 126 kts 247°
2026-04-22 10:01 57.21489 65.35233 1094 ft 144 kts 203°
2026-04-22 10:01 57.20547 65.34773 1181 ft 134 kts 200°
2026-04-22 10:01 57.19656 65.34225 1711 ft 137 kts 207°
2026-04-22 10:02 57.18758 65.33513 1972 ft 151 kts 205°
2026-04-22 10:02 57.17975 65.32378 1729 ft 140 kts 238°
2026-04-22 10:02 57.17432 65.30934 1499 ft 133 kts 236°
2026-04-22 10:02 57.16890 65.29585 1318 ft 134 kts 235°
2026-04-22 10:03 57.16321 65.28224 1117 ft 134 kts 234°
2026-04-22 10:03 57.15749 65.26879 918 ft 134 kts 234°
2026-04-22 10:03 57.15184 65.25581 957 ft 118 kts 232°
2026-04-22 10:03 57.14586 65.24454 1545 ft 130 kts 227°
2026-04-22 10:04 57.13989 65.23319 2709 ft 108 kts 226°
2026-04-22 10:04 57.13536 65.22411 3800 ft 93 kts 238°
2026-04-22 10:04 57.13229 65.21180 4296 ft 126 kts 255°
2026-04-22 10:04 57.13144 65.19440 4821 ft 143 kts 265°
2026-04-22 10:05 57.12719 65.17730 4646 ft 149 kts 223°
2026-04-22 10:05 57.11757 65.17088 4627 ft 147 kts 196°
2026-04-22 10:05 57.10766 65.16797 4619 ft 142 kts 195°
2026-04-22 10:05 57.09815 65.16425 4604 ft 137 kts 213°
2026-04-22 10:06 57.09403 65.15036 4625 ft 132 kts 274°
2026-04-22 10:06 57.09742 65.13432 4622 ft 139 kts 293°
2026-04-22 10:06 57.10226 65.11875 4639 ft 142 kts 294°
2026-04-22 10:06 57.10725 65.10294 4625 ft 143 kts 294°
2026-04-22 10:07 57.11218 65.08736 4619 ft 139 kts 294°
2026-04-22 10:07 57.11698 65.07216 4614 ft 136 kts 294°
2026-04-22 10:07 57.12174 65.05706 4619 ft 137 kts 294°
2026-04-22 10:07 57.12655 65.04175 4618 ft 138 kts 294°
2026-04-22 10:08 57.13338 65.02927 4605 ft 150 kts 336°
2026-04-22 10:08 57.14381 65.02629 4685 ft 155 kts 343°
2026-04-22 10:08 57.15464 65.02273 4506 ft 159 kts 342°
2026-04-22 10:08 57.16533 65.01903 4258 ft 154 kts 341°
2026-04-22 10:09 57.17569 65.01529 4027 ft 150 kts 341°
2026-04-22 10:09 57.18584 65.01157 3798 ft 148 kts 341°
2026-04-22 10:09 57.19593 65.00779 3578 ft 148 kts 341°
2026-04-22 10:09 57.20606 65.00396 3362 ft 148 kts 341°
2026-04-22 10:10 57.21641 65.00234 3106 ft 156 kts
2026-04-22 10:10 57.22481 65.01470 2857 ft 164 kts 69°
2026-04-22 10:10 57.22348 65.03437 2658 ft 156 kts 134°
2026-04-22 10:10 57.21452 65.04088 2421 ft 136 kts 201°
2026-04-22 10:11 57.20899 65.02916 2202 ft 127 kts 266°
2026-04-22 10:11 57.20786 65.01311 1983 ft 131 kts 238°
2026-04-22 10:11 57.19961 65.00662 1770 ft 140 kts 180°
2026-04-22 10:11 57.19129 65.01620 1638 ft 153 kts 118°
2026-04-22 10:12 57.19193 65.03524 1634 ft 155 kts 61°
2026-04-22 10:12 57.19581 65.05408 1620 ft 158 kts 75°
2026-04-22 10:12 57.19853 65.07364 1622 ft 157 kts 76°
2026-04-22 10:12 57.20116 65.09307 1608 ft 156 kts 76°
2026-04-22 10:13 57.20389 65.11240 1606 ft 156 kts 74°
2026-04-22 10:13 57.20669 65.13166 1614 ft 155 kts 75°
2026-04-22 10:13 57.20937 65.15098 1620 ft 156 kts 73°
2026-04-22 10:13 57.21207 65.17027 1616 ft 154 kts 74°
2026-04-22 10:14 57.21470 65.18916 1613 ft 154 kts 73°
2026-04-22 10:14 57.21743 65.20862 1607 ft 153 kts 73°
2026-04-22 10:14 57.22010 65.22755 1609 ft 153 kts 73°
2026-04-22 10:14 57.22162 65.24701 1612 ft 153 kts 76°
2026-04-22 10:15 57.22744 65.26263 1625 ft 147 kts 31°
2026-04-22 10:15 57.23515 65.27503 1619 ft 151 kts 39°
2026-04-22 10:15 57.24288 65.28850 1618 ft 153 kts 39°
2026-04-22 10:15 57.25067 65.30210 1615 ft 153 kts 39°
2026-04-22 10:16 57.25845 65.31568 1614 ft 150 kts 39°
2026-04-22 10:16 57.26561 65.32940 1608 ft 152 kts 47°
2026-04-22 10:16 57.27218 65.34463 1611 ft 152 kts 48°
2026-04-22 10:16 57.27864 65.35996 1599 ft 151 kts 51°
2026-04-22 10:17 57.28095 65.37832 1601 ft 152 kts 109°
2026-04-22 10:17 57.27490 65.39393 1638 ft 156 kts 133°
2026-04-22 10:17 57.26812 65.40980 1616 ft 157 kts 129°
2026-04-22 10:17 57.26152 65.42550 1591 ft 152 kts 135°
2026-04-22 10:18 57.25276 65.43412 1604 ft 141 kts 179°
2026-04-22 10:18 57.24384 65.42825 1623 ft 138 kts 230°
2026-04-22 10:18 57.23766 65.41478 1618 ft 138 kts 226°
2026-04-22 10:18 57.23059 65.40306 1611 ft 137 kts 227°
2026-04-22 10:19 57.22359 65.39074 1467 ft 144 kts 230°
2026-04-22 10:19 57.21662 65.37695 1149 ft 142 kts 231°
2026-04-22 10:19 57.21009 65.36379 965 ft 137 kts 231°
2026-04-22 10:19 57.20373 65.35060 809 ft 138 kts 232°
2026-04-22 10:20 57.19720 65.33758 648 ft 137 kts 230°
2026-04-22 10:20 57.19081 65.32466 428 ft 135 kts 229°
2026-04-22 10:20 57.18448 65.31204 368 ft 130 kts 231°
2026-04-22 10:20 57.17954 65.30193 375 ft 64 kts 226°
2026-04-22 10:21 57.17813 65.29909 378 ft 13 kts 227°
2026-04-22 10:21 57.17805 65.29892 378 ft 0 kts 227°
2026-04-22 10:21 57.17790 65.29865 379 ft 10 kts 224°
2026-04-22 10:22 57.17666 65.29620 383 ft 29 kts 227°
2026-04-22 10:22 57.17571 65.29425 385 ft 11 kts 228°
2026-04-22 10:22 57.17515 65.29341 385 ft 10 kts 196°
2026-04-22 10:22 57.17445 65.29404 386 ft 9 kts 140°
2026-04-22 10:23 57.17395 65.29490 386 ft 10 kts 129°
2026-04-22 10:23 57.17388 65.29586 385 ft 8 kts 64°
2026-04-22 10:23 57.17460 65.29742 384 ft 21 kts 49°
2026-04-22 10:23 57.17609 65.30046 382 ft 36 kts 48°
2026-04-22 10:24 57.17777 65.30386 378 ft 37 kts 46°
2026-04-22 10:24 57.17960 65.30753 372 ft 40 kts 47°
2026-04-22 10:24 57.18155 65.31151 368 ft 44 kts 47°
2026-04-22 10:24 57.18364 65.31572 359 ft 46 kts 48°
2026-04-22 10:25 57.18458 65.31930 341 ft 32 kts 88°
2026-04-22 10:25 57.18466 65.32372 328 ft 33 kts 88°
2026-04-22 10:25 57.18472 65.32756 329 ft 28 kts 88°
2026-04-22 10:25 57.18487 65.33091 332 ft 23 kts 66°
2026-04-22 10:26 57.18564 65.33256 335 ft 15 kts 46°
2026-04-22 10:26 57.18617 65.33382 337 ft 8 kts 76°
2026-04-22 10:26 57.18618 65.33548 339 ft 22 kts 102°
2026-04-22 10:26 57.18548 65.33732 338 ft 17 kts 134°
2026-04-22 10:27 57.18465 65.33888 335 ft 17 kts 135°
2026-04-22 10:27 57.18383 65.34037 339 ft 16 kts 135°
2026-04-22 10:27 57.18302 65.34186 337 ft 16 kts 135°
2026-04-22 10:27 57.18221 65.34336 336 ft 17 kts 134°
2026-04-22 10:28 57.18138 65.34488 340 ft 17 kts 135°
2026-04-22 10:28 57.18056 65.34642 340 ft 16 kts 134°
2026-04-22 10:28 57.17975 65.34790 339 ft 17 kts 135°
2026-04-22 10:28 57.17895 65.34940 336 ft 12 kts 134°
2026-04-22 10:29 57.17828 65.35063 338 ft 15 kts 137°
2026-04-22 10:29 57.17777 65.35163 339 ft 0 kts 120°
2026-04-22 10:29 57.17776 65.35165 335 ft 0 kts 119°
2026-04-22 10:29 57.17755 65.35252 338 ft 9 kts 96°
2026-04-22 10:30 57.17775 65.35338 338 ft 1 kts
2026-04-22 10:30 57.17797 65.35303 338 ft 8 kts 292°
2026-04-22 10:30 57.17787 65.35253 339 ft 0 kts 229°